[[{"header":{"parameterUnit":"m.s-1","parameterCategory":2,"la1":30.2991,"la2":30.254,"lo1":-89.0895,"lo2":-89.0444,"dy":0.0017,"dx":0.0017,"nx":28,"ny":28,"refTime":"2025-07-22T09:00:00:Z","depth":"0","parameterNumber":2,"parameterNumberName":"U-component_of_CURRENTS"},"data":[0,0,0,0,0,0,0,0,0,0,0,0,0,0,0,0,0,0,0,0,0,0,0,0,0,0,0,0,0,0,0,0,0,0,0,0,0,0,0,0,0,0,0,0,0,0,0,0,0,0,0,0,0,0,0,0,0,0,-0.3133,-0.3133,0,-0.3116,-0.3115,-0.3114,-0.3059,-0.3058,-0.3058,-0.3057,-0.2967,-0.2965,-0.2963,0,0,0,0,0,0,0,0,0,0,0,0,0,-0.2786,-0.2794,-0.3133,-0.3133,-0.3133,-0.3116,-0.3115,-0.3114,-0.3059,-0.3058,-0.3058,-0.3057,-0.2968,-0.2965,-0.2963,0,0,0,0,0,0,0,0,0,0,0,0,0,-0.2864,-0.2797,-0.3132,-0.3109,-0.3107,-0.3116,-0.3115,-0.3114,-0.3059,-0.3058,-0.3057,-0.3056,-0.2968,-0.2966,-0.2963,-0.2963,0,0,-0.2954,-0.2953,0,0,0,0,0,0,0,0,-0.286,-0.2876,-0.3112,-0.3111,-0.3109,-0.3095,-0.296,-0.3062,-0.3059,-0.307,-0.3057,-0.3056,-0.3008,-0.3002,-0.2992,-0.2959,-0.2955,-0.2954,-0.2952,-0.2951,-0.295,0,0,0,0,0,0,0,-0.2855,-0.2874,-0.3119,-0.3113,-0.3111,-0.2986,-0.2999,-0.2977,-0.3037,-0.3069,-0.3067,-0.3076,-0.3006,-0.2995,-0.2989,-0.2954,-0.2954,-0.2952,-0.295,-0.2949,-0.2899,-0.29,0,0,0,0,0,0,-0.2892,-0.2873,-0.3119,-0.3119,-0.2987,-0.2995,-0.3008,-0.3094,-0.3039,-0.3033,-0.3077,-0.3074,-0.3,-0.2993,-0.2986,-0.2976,-0.2951,-0.2949,-0.2947,-0.2899,-0.29,-0.29,0,0,0,0,0,0,-0.2886,-0.2917,-0.312,-0.2994,-0.3012,-0.3006,-0.31,-0.3095,-0.3085,-0.3048,-0.3038,-0.3074,-0.2999,-0.299,-0.2968,-0.2972,-0.2947,-0.2945,-0.2899,-0.2899,-0.29,-0.296,0,0,0,0,0,0,-0.2877,-0.2917,-0.297,-0.3001,-0.3022,-0.3135,-0.3101,-0.3095,-0.3096,-0.3091,-0.3042,-0.3032,-0.2997,-0.2973,-0.2966,-0.2968,-0.2943,-0.2898,-0.2899,-0.29,-0.2958,-0.2963,-0.2967,0,0,0,0,0,-0.2866,-0.2947,-0.2975,-0.3002,-0.3107,-0.3137,-0.3135,-0.3116,-0.3097,-0.3101,-0.3064,-0.3034,-0.2971,-0.2971,-0.2963,-0.2964,-0.2898,-0.2899,-0.29,-0.2956,-0.2962,-0.2967,0,0,0,0,0,0,-0.2798,-0.2951,-0.2981,-0.3101,-0.3124,-0.313,-0.313,-0.3124,-0.3098,-0.3087,-0.3041,-0.303,-0.3022,-0.2983,-0.2984,-0.2951,-0.2929,-0.2928,-0.2974,-0.298,-0.2984,-0.2972,-0.294,0,0,0,0,0,-0.2824,-0.2938,-0.302,-0.31,-0.3126,-0.3129,-0.3133,-0.3131,-0.3122,-0.3109,-0.3078,-0.304,-0.3019,-0.2992,-0.2976,-0.2949,-0.2921,-0.2943,-0.2948,-0.2952,-0.2936,-0.2923,-0.2925,-0.2902,-0.2902,-0.2902,0,0,-0.2787,-0.291,-0.2949,-0.3093,-0.3106,-0.3136,-0.3127,-0.3149,-0.315,-0.3104,-0.3084,-0.3069,-0.3024,-0.3006,-0.2995,-0.2967,-0.2944,-0.2953,-0.2957,-0.2938,-0.2924,-0.2926,-0.2928,-0.2903,-0.2903,-0.2903,0,0,-0.2775,-0.2916,-0.2985,-0.3041,-0.3116,-0.3133,-0.3148,-0.3172,-0.3163,-0.3164,-0.3129,-0.3109,-0.3077,-0.3034,-0.301,-0.3026,-0.2989,-0.3027,-0.3014,-0.3003,-0.3004,-0.3005,-0.2975,-0.2973,-0.3004,-0.3005,-0.3005,0,-0.2724,-0.2864,-0.2984,-0.3066,-0.3093,-0.3138,-0.3158,-0.3171,-0.3173,-0.3159,-0.3167,-0.3114,-0.3086,-0.3036,-0.3043,-0.3035,-0.302,-0.3,-0.3009,-0.301,-0.301,-0.2978,-0.2975,-0.3008,-0.3007,-0.3007,-0.3007,0,-0.2734,-0.2857,-0.2897,-0.3039,-0.3081,-0.3112,-0.317,-0.3185,-0.3193,-0.3191,-0.3174,-0.3145,-0.3099,-0.3099,-0.3075,-0.305,-0.3038,-0.304,-0.2998,-0.3016,-0.2981,-0.2977,-0.3012,-0.3011,-0.301,-0.3009,0,0,-0.2616,-0.2853,-0.2869,-0.2933,-0.3075,-0.3102,-0.3141,-0.3165,-0.3165,-0.3178,-0.3157,-0.3133,-0.312,-0.3091,-0.3061,-0.3041,-0.3039,-0.3038,-0.3036,-0.301,-0.3005,-0.2819,-0.2796,-0.3054,-0.3054,-0.3053,-0.2982,0,-0.2573,-0.2699,-0.2836,-0.2909,-0.2969,-0.3064,-0.3096,-0.3132,-0.3157,-0.3159,-0.314,-0.3126,-0.3116,-0.3099,-0.3081,-0.3073,-0.303,-0.3057,-0.2987,-0.2983,-0.2819,-0.2785,-0.2673,-0.2584,-0.2977,-0.2977,-0.2976,0,-0.2538,-0.2649,-0.2703,-0.2885,-0.2911,-0.2944,-0.3003,-0.3043,-0.3084,-0.311,-0.3101,-0.3109,-0.3084,-0.3084,-0.3044,-0.3069,-0.3025,-0.301,-0.3007,-0.2801,-0.2787,-0.2628,-0.2561,-0.2554,-0.2969,-0.2969,-0.297,0,-0.238,-0.2569,-0.2601,-0.2656,-0.2837,-0.2853,-0.292,-0.2989,-0.3036,-0.3064,-0.3104,-0.3081,-0.3085,-0.3053,-0.3001,-0.3045,-0.2945,-0.3003,-0.2776,-0.2764,-0.263,-0.2604,-0.2543,-0.2934,-0.2935,-0.2935,-0.2935,0,-0.2316,-0.2366,-0.2526,-0.2551,-0.26,-0.2746,-0.2779,-0.2855,-0.2949,-0.3005,-0.3051,-0.3073,-0.3086,-0.3037,-0.2991,-0.2836,-0.2925,-0.2745,-0.2719,-0.2645,-0.2623,-0.2578,-0.2621,-0.2932,-0.2933,-0.2933,-0.2934,0,-0.2177,-0.2277,-0.235,-0.2495,-0.254,-0.2565,-0.2743,-0.279,-0.2884,-0.2962,-0.2984,-0.3074,-0.2998,-0.2928,-0.2861,-0.28,-0.2621,-0.2586,-0.2473,-0.2432,-0.2236,-0.2286,-0.2165,-0.2104,-0.2377,-0.2372,-0.2367,0,-0.2126,-0.2135,-0.2269,-0.2327,-0.2399,-0.2479,-0.2564,-0.272,-0.2805,-0.2952,-0.2995,-0.2953,-0.2865,-0.266,-0.2518,-0.2321,-0.2365,-0.2146,-0.2189,-0.2163,-0.2204,-0.2269,-0.2234,-0.2062,-0.2055,-0.205,-0.2045,0,-0.2023,-0.2044,-0.2106,-0.2217,-0.2306,-0.2417,-0.2548,-0.2605,-0.2793,-0.2817,-0.2818,-0.2735,-0.2556,-0.2295,-0.2059,-0.1969,-0.2103,-0.2026,-0.2052,-0.1961,-0.1978,-0.1926,-0.2177,-0.1998,-0.2002,-0.2006,-0.2008,-0.201,-0.1933,-0.1947,-0.2017,-0.2124,-0.2236,-0.2335,-0.2338,-0.246,-0.2497,-0.2454,-0.2511,-0.2208,-0.2116,-0.1747,-0.1672,-0.1556,-0.168,-0.1562,-0.163,-0.1702,-0.1607,-0.1706,-0.1456,-0.1458,-0.1459,-0.146,-0.1461,0,-0.1836,-0.1869,-0.195,-0.2063,-0.2126,-0.2219,-0.2324,-0.2249,-0.2169,-0.2053,-0.1868,-0.1474,-0.1349,-0.1306,-0.1283,-0.1226,-0.1268,-0.1227,-0.1359,-0.1348,-0.1471,-0.1418,-0.1081,-0.1081,-0.1081,-0.1081,-0.1081,-0.1081,-0.1791,-0.181,-0.1857,-0.1918,-0.1985,-0.1941,-0.1932,-0.1805,-0.1652,-0.1224,-0.0857,-0.0603,-0.0738,-0.1092,-0.1174,-0.1133,-0.1174,-0.11,-0.1163,-0.1333,-0.1374,-0.1413,-0.1373,-0.1032,-0.1032,-0.1003,-0.1003,-0.1003]},{"header":{"parameterUnit":"m.s-1","parameterCategory":2,"la1":30.2991,"la2":30.254,"lo1":-89.0895,"lo2":-89.0444,"dy":0.0017,"dx":0.0017,"nx":28,"ny":28,"refTime":"2025-07-22T09:00:00:Z","depth":"0","parameterNumber":3,"parameterNumberName":"V-component_of_CURRENTS"},"data":[0,0,0,0,0,0,0,0,0,0,0,0,0,0,0,0,0,0,0,0,0,0,0,0,0,0,0,0,0,0,0,0,0,0,0,0,0,0,0,0,0,0,0,0,0,0,0,0,0,0,0,0,0,0,0,0,0,0,-0.0731,-0.0731,0,-0.0693,-0.0693,-0.0692,-0.0613,-0.0611,-0.061,-0.0608,-0.0457,-0.0454,-0.0452,0,0,0,0,0,0,0,0,0,0,0,0,0,-0.0598,-0.0602,-0.0731,-0.0731,-0.0731,-0.0693,-0.0693,-0.0692,-0.0613,-0.0611,-0.0609,-0.0608,-0.0458,-0.0455,-0.0451,0,0,0,0,0,0,0,0,0,0,0,0,0,-0.0616,-0.0603,-0.0731,-0.0688,-0.0684,-0.0694,-0.0693,-0.0692,-0.0613,-0.0611,-0.0609,-0.0607,-0.0459,-0.0455,-0.0451,-0.0468,0,0,-0.0438,-0.0437,0,0,0,0,0,0,0,0,-0.0616,-0.0621,-0.0695,-0.0691,-0.0687,-0.0657,-0.059,-0.0612,-0.0614,-0.0638,-0.0608,-0.0606,-0.0516,-0.0507,-0.0504,-0.0461,-0.0454,-0.0438,-0.0435,-0.0434,-0.0433,0,0,0,0,0,0,0,-0.0615,-0.0621,-0.0714,-0.0695,-0.069,-0.0624,-0.0625,-0.0594,-0.0586,-0.0636,-0.063,-0.063,-0.0513,-0.0508,-0.0499,-0.0452,-0.0438,-0.0434,-0.0432,-0.043,-0.0386,-0.0387,0,0,0,0,0,0,-0.0634,-0.0622,-0.0715,-0.0713,-0.0648,-0.0629,-0.063,-0.0667,-0.0588,-0.0576,-0.0632,-0.0627,-0.0516,-0.0504,-0.0493,-0.0498,-0.0434,-0.043,-0.0428,-0.0384,-0.0386,-0.0387,0,0,0,0,0,0,-0.0632,-0.0644,-0.0717,-0.0665,-0.067,-0.0635,-0.0676,-0.0668,-0.0655,-0.0587,-0.0571,-0.0627,-0.0514,-0.0499,-0.0467,-0.0491,-0.0428,-0.0424,-0.0383,-0.0385,-0.0386,-0.0513,0,0,0,0,0,0,-0.0629,-0.0645,-0.0679,-0.0668,-0.0674,-0.0733,-0.0678,-0.0668,-0.066,-0.0652,-0.0579,-0.0563,-0.0511,-0.0474,-0.0463,-0.0484,-0.0421,-0.0381,-0.0384,-0.0386,-0.0507,-0.0519,-0.0529,0,0,0,0,0,-0.0625,-0.0685,-0.0682,-0.0692,-0.0724,-0.0734,-0.0731,-0.0695,-0.0662,-0.0672,-0.0617,-0.0564,-0.048,-0.0472,-0.0459,-0.048,-0.038,-0.0383,-0.0386,-0.0503,-0.0517,-0.0529,0,0,0,0,0,0,-0.0634,-0.0683,-0.0678,-0.0748,-0.0744,-0.0722,-0.073,-0.0704,-0.0672,-0.0656,-0.0582,-0.0564,-0.0543,-0.0498,-0.049,-0.0474,-0.0422,-0.0422,-0.0515,-0.0528,-0.0539,-0.0605,-0.0418,0,0,0,0,0,-0.0659,-0.072,-0.0732,-0.078,-0.0787,-0.0759,-0.0758,-0.0736,-0.0706,-0.0689,-0.0641,-0.0587,-0.055,-0.0527,-0.0487,-0.0483,-0.041,-0.0488,-0.0499,-0.0508,-0.0554,-0.0496,-0.0507,-0.0396,-0.0396,-0.0396,0,0,-0.0658,-0.0706,-0.0727,-0.0786,-0.0778,-0.0819,-0.0752,-0.0761,-0.0786,-0.0678,-0.0689,-0.0622,-0.0556,-0.0548,-0.0536,-0.0511,-0.048,-0.0512,-0.0521,-0.0562,-0.05,-0.0511,-0.0521,-0.0398,-0.0398,-0.0398,0,0,-0.0709,-0.0747,-0.0814,-0.0841,-0.0863,-0.0853,-0.0861,-0.0848,-0.0833,-0.0833,-0.0761,-0.0725,-0.0665,-0.0636,-0.0609,-0.0662,-0.0539,-0.0629,-0.0741,-0.0683,-0.0692,-0.07,-0.0532,-0.0524,-0.0636,-0.0637,-0.0637,0,-0.071,-0.0826,-0.0824,-0.0906,-0.0943,-0.088,-0.095,-0.0933,-0.0906,-0.0915,-0.0851,-0.0788,-0.0721,-0.0729,-0.0741,-0.0692,-0.0596,-0.0694,-0.0699,-0.0705,-0.0711,-0.0538,-0.0527,-0.0643,-0.0642,-0.0642,-0.0641,0,-0.0799,-0.0913,-0.0952,-0.105,-0.1072,-0.1125,-0.1113,-0.1123,-0.1084,-0.1064,-0.1051,-0.0956,-0.093,-0.0885,-0.0827,-0.084,-0.0731,-0.0715,-0.067,-0.073,-0.0542,-0.0528,-0.0652,-0.065,-0.0648,-0.0647,0,0,-0.0789,-0.0985,-0.1006,-0.1115,-0.1171,-0.121,-0.1252,-0.1292,-0.1331,-0.1265,-0.1297,-0.1225,-0.1162,-0.113,-0.1037,-0.0983,-0.0893,-0.0876,-0.0869,-0.0716,-0.0673,-0.0556,-0.0528,-0.0871,-0.0872,-0.0873,-0.0492,0,-0.0875,-0.1092,-0.1142,-0.1324,-0.1442,-0.1433,-0.1486,-0.1498,-0.1467,-0.147,-0.137,-0.1349,-0.1255,-0.1224,-0.1166,-0.096,-0.0879,-0.0993,-0.0635,-0.0623,-0.0521,-0.0519,-0.0463,-0.012,-0.0478,-0.0476,-0.0474,0,-0.0952,-0.1125,-0.1325,-0.1547,-0.1584,-0.1654,-0.1745,-0.1776,-0.175,-0.1721,-0.1681,-0.1574,-0.1478,-0.1388,-0.1106,-0.1171,-0.0963,-0.0791,-0.0772,-0.0633,-0.0488,-0.0136,-0.0081,0.0072,-0.0453,-0.0454,-0.0456,0,-0.0975,-0.1252,-0.1434,-0.1507,-0.1706,-0.1784,-0.1844,-0.186,-0.1892,-0.1866,-0.1841,-0.1732,-0.16,-0.1407,-0.1029,-0.1074,-0.0654,-0.0669,-0.036,-0.0342,-0.0216,-0.0189,0.0005,-0.0511,-0.0512,-0.0513,-0.0514,0,-0.1066,-0.1227,-0.1486,-0.1589,-0.1829,-0.1881,-0.2024,-0.2072,-0.2065,-0.2054,-0.1968,-0.1862,-0.1601,-0.131,-0.1047,-0.0608,-0.0657,-0.0379,-0.0268,-0.0245,-0.0227,-0.0027,0.0005,-0.0499,-0.0502,-0.0505,-0.0507,0,-0.1069,-0.1219,-0.1499,-0.1769,-0.1856,-0.2019,-0.217,-0.2239,-0.2208,-0.2172,-0.2154,-0.1917,-0.1512,-0.1184,-0.075,-0.0565,-0.0079,-0.0046,0.0025,0.0131,0.045,0.0472,0.0777,0.0885,0.0293,0.0298,0.0302,0,-0.1093,-0.1225,-0.1618,-0.1802,-0.1947,-0.2162,-0.2274,-0.2327,-0.2339,-0.2145,-0.2094,-0.1725,-0.1359,-0.0677,-0.0319,0.0163,0.0244,0.0446,0.0293,0.0474,0.0582,0.0583,0.0648,0.0486,0.0491,0.0495,0.0498,0,-0.1175,-0.1304,-0.1547,-0.1909,-0.2129,-0.233,-0.2451,-0.2457,-0.2385,-0.2223,-0.1846,-0.1522,-0.0909,-0.0325,0.0205,0.045,0.0525,0.0542,0.0686,0.0692,0.0748,0.0906,0.031,0.0535,0.0532,0.0529,0.0527,0.0525,-0.122,-0.1435,-0.1722,-0.205,-0.2283,-0.2391,-0.2392,-0.2349,-0.2196,-0.178,-0.1564,-0.0931,-0.0345,0.0423,0.0643,0.1009,0.091,0.1091,0.1109,0.11,0.1141,0.0663,0.1008,0.1007,0.1006,0.1005,0.1005,0,-0.1288,-0.1506,-0.1824,-0.2168,-0.2316,-0.2424,-0.2422,-0.2246,-0.1871,-0.1467,-0.0967,-0.0108,0.0497,0.0914,0.1386,0.1558,0.1534,0.1636,0.1618,0.1658,0.123,0.1168,0.1612,0.1612,0.1612,0.1612,0.1611,0.1611,-0.1343,-0.1618,-0.1793,-0.2082,-0.224,-0.2225,-0.2128,-0.1813,-0.1464,-0.0648,-0.005,0.0402,0.0961,0.1596,0.198,0.2002,0.2136,0.2129,0.2205,0.186,0.1807,0.1757,0.1706,0.2256,0.2257,0.2619,0.2623,0.2625]}],[{"header":{"parameterUnit":"m.s-1","parameterCategory":2,"la1":30.2991,"la2":30.254,"lo1":-89.0895,"lo2":-89.0444,"dy":0.0017,"dx":0.0017,"nx":28,"ny":28,"refTime":"2025-07-22T09:00:00:Z","depth":"2","parameterNumber":2,"parameterNumberName":"U-component_of_CURRENTS"},"data":[0,0,0,0,0,0,0,0,0,0,0,0,0,0,0,0,0,0,0,0,0,0,0,0,0,0,0,0,0,0,0,0,0,0,0,0,0,0,0,0,0,0,0,0,0,0,0,0,0,0,0,0,0,0,0,0,0,0,-0.2311,-0.2312,0,-0.2376,-0.2377,-0.2377,-0.2359,-0.2358,-0.2357,-0.2355,-0.2456,-0.246,-0.2464,0,0,0,0,0,0,0,0,0,0,0,0,0,-0.23,-0.23,-0.2311,-0.2312,-0.2313,-0.2376,-0.2377,-0.2378,-0.236,-0.2358,-0.2356,-0.2355,-0.2455,-0.246,-0.2464,0,0,0,0,0,0,0,0,0,0,0,0,0,-0.2329,-0.23,-0.2311,-0.2311,-0.2311,-0.2375,-0.2377,-0.2378,-0.236,-0.2358,-0.2356,-0.2354,-0.2453,-0.2459,-0.2465,-0.2544,0,0,-0.2483,-0.2486,0,0,0,0,0,0,0,0,-0.2328,-0.233,-0.231,-0.2311,-0.2312,-0.2357,-0.241,-0.2435,-0.2361,-0.2342,-0.2355,-0.2353,-0.2427,-0.2435,-0.2453,-0.2548,-0.2553,-0.2484,-0.2487,-0.249,-0.2492,0,0,0,0,0,0,0,-0.2325,-0.2328,-0.2338,-0.2311,-0.2312,-0.2351,-0.2352,-0.2415,-0.2397,-0.2344,-0.2342,-0.2349,-0.2428,-0.2447,-0.2455,-0.2554,-0.2484,-0.2489,-0.2493,-0.2495,-0.2617,-0.2616,0,0,0,0,0,0,-0.2311,-0.2325,-0.2336,-0.2339,-0.2314,-0.2352,-0.2353,-0.2345,-0.2396,-0.2401,-0.2351,-0.2348,-0.2438,-0.2448,-0.2459,-0.2483,-0.249,-0.2496,-0.2499,-0.2617,-0.2617,-0.2616,0,0,0,0,0,0,-0.2311,-0.2311,-0.2333,-0.2334,-0.2339,-0.2354,-0.2345,-0.2347,-0.2362,-0.24,-0.2406,-0.2362,-0.2437,-0.245,-0.2502,-0.2489,-0.2498,-0.2504,-0.2617,-0.2617,-0.2616,-0.2578,0,0,0,0,0,0,-0.231,-0.231,-0.2303,-0.2333,-0.2339,-0.2353,-0.2347,-0.235,-0.2369,-0.2366,-0.2413,-0.242,-0.2436,-0.2493,-0.2508,-0.2497,-0.2508,-0.2618,-0.2617,-0.2617,-0.258,-0.2576,-0.2573,0,0,0,0,0,-0.2309,-0.2307,-0.2302,-0.2303,-0.2326,-0.2353,-0.236,-0.2365,-0.2371,-0.2373,-0.2406,-0.2418,-0.2497,-0.2499,-0.2516,-0.2507,-0.2618,-0.2617,-0.2617,-0.2581,-0.2577,-0.2573,0,0,0,0,0,0,-0.2305,-0.2306,-0.23,-0.2299,-0.2315,-0.2349,-0.2361,-0.2374,-0.2405,-0.2408,-0.2441,-0.2451,-0.2473,-0.251,-0.251,-0.2536,-0.255,-0.2553,-0.2517,-0.2514,-0.251,-0.2521,-0.2513,0,0,0,0,0,-0.23,-0.2294,-0.2306,-0.2308,-0.2315,-0.2343,-0.2358,-0.2364,-0.2396,-0.2407,-0.2441,-0.2473,-0.2489,-0.2517,-0.2537,-0.2591,-0.2602,-0.2586,-0.2583,-0.258,-0.2598,-0.2597,-0.2595,-0.2614,-0.2614,-0.2614,0,0,-0.2307,-0.2303,-0.2304,-0.2307,-0.2325,-0.2341,-0.2347,-0.237,-0.2385,-0.242,-0.2457,-0.2466,-0.2496,-0.2518,-0.2533,-0.2551,-0.2576,-0.2579,-0.2577,-0.2597,-0.2596,-0.2594,-0.2592,-0.2613,-0.2613,-0.2613,0,0,-0.2316,-0.2308,-0.2304,-0.2315,-0.2331,-0.2348,-0.2354,-0.2387,-0.2395,-0.2435,-0.244,-0.2452,-0.2508,-0.2514,-0.2526,-0.2532,-0.2546,-0.2528,-0.2544,-0.2541,-0.2539,-0.2539,-0.2531,-0.253,-0.2543,-0.2542,-0.2542,0,-0.2316,-0.2311,-0.2313,-0.2316,-0.233,-0.235,-0.2364,-0.2385,-0.243,-0.2447,-0.2434,-0.2484,-0.25,-0.2526,-0.251,-0.2525,-0.2528,-0.2555,-0.2536,-0.2536,-0.2536,-0.2529,-0.2528,-0.2541,-0.2541,-0.2541,-0.2541,0,-0.2325,-0.2321,-0.2327,-0.2328,-0.2347,-0.2364,-0.2387,-0.2411,-0.2425,-0.2442,-0.246,-0.2475,-0.2505,-0.2493,-0.2508,-0.2514,-0.2515,-0.2516,-0.2545,-0.2531,-0.2525,-0.2525,-0.2538,-0.2538,-0.2539,-0.2539,0,0,-0.2299,-0.2324,-0.232,-0.2327,-0.2352,-0.2369,-0.2402,-0.2432,-0.2462,-0.247,-0.25,-0.2496,-0.2502,-0.2517,-0.2523,-0.2527,-0.2506,-0.2528,-0.2528,-0.252,-0.2498,-0.2382,-0.237,-0.2503,-0.2503,-0.2504,-0.2488,0,-0.2294,-0.23,-0.232,-0.2341,-0.2349,-0.2385,-0.2419,-0.2453,-0.2478,-0.2514,-0.2512,-0.2534,-0.2512,-0.2524,-0.2518,-0.2517,-0.2508,-0.2511,-0.2516,-0.2516,-0.2413,-0.2367,-0.2186,-0.2146,-0.2487,-0.2487,-0.2487,0,-0.2271,-0.2282,-0.2296,-0.2344,-0.2353,-0.2374,-0.2433,-0.2467,-0.2521,-0.2544,-0.2563,-0.2573,-0.2583,-0.2557,-0.2543,-0.2547,-0.2521,-0.2509,-0.2508,-0.242,-0.2399,-0.222,-0.2134,-0.2487,-0.2487,-0.2487,-0.2487,0,-0.2225,-0.2258,-0.2268,-0.2281,-0.2342,-0.2362,-0.24,-0.2464,-0.2503,-0.2562,-0.2596,-0.2607,-0.2611,-0.2589,-0.2542,-0.2554,-0.2511,-0.2526,-0.2394,-0.2387,-0.2245,-0.2223,-0.2503,-0.2503,-0.2503,-0.2503,-0.2503,0,-0.2188,-0.2192,-0.2245,-0.2247,-0.2275,-0.2333,-0.2377,-0.2426,-0.2505,-0.2549,-0.2599,-0.2614,-0.2617,-0.2591,-0.2555,-0.2452,-0.2512,-0.2387,-0.2368,-0.2223,-0.22,-0.2517,-0.2519,-0.2502,-0.2502,-0.2502,-0.2502,0,-0.2117,-0.2152,-0.2164,-0.2227,-0.2244,-0.2259,-0.2347,-0.2387,-0.2477,-0.2538,-0.2559,-0.2614,-0.2571,-0.2549,-0.2506,-0.2447,-0.2382,-0.2327,-0.2148,-0.2107,-0.2267,-0.2268,-0.2208,-0.2203,-0.2199,-0.2196,-0.2194,0,-0.2078,-0.2075,-0.2127,-0.213,-0.2149,-0.2191,-0.2226,-0.2339,-0.239,-0.2514,-0.253,-0.2535,-0.2478,-0.2368,-0.2263,-0.2161,-0.2257,-0.1962,-0.1945,-0.2246,-0.2234,-0.2241,-0.2246,-0.1746,-0.174,-0.1735,-0.1731,0,-0.2,-0.2016,-0.2027,-0.2038,-0.206,-0.2095,-0.2155,-0.2194,-0.2334,-0.2403,-0.2429,-0.2393,-0.2279,-0.2061,-0.1931,-0.1859,-0.1967,-0.1856,-0.2207,-0.1841,-0.1807,-0.1797,-0.1818,-0.1687,-0.1692,-0.1695,-0.1697,-0.1699,-0.1928,-0.1914,-0.1925,-0.1924,-0.1953,-0.1963,-0.1937,-0.2035,-0.209,-0.2114,-0.221,-0.2084,-0.2024,-0.1692,-0.1583,-0.1502,-0.1649,-0.1597,-0.1614,-0.1637,-0.1577,-0.1537,-0.1357,-0.1359,-0.1361,-0.1363,-0.1365,0,-0.1827,-0.1817,-0.1813,-0.1795,-0.1769,-0.1829,-0.1859,-0.1798,-0.18,-0.1834,-0.1814,-0.1589,-0.1424,-0.1362,-0.1154,-0.112,-0.1135,-0.1088,-0.1116,-0.1159,-0.1198,-0.1119,-0.0776,-0.0774,-0.0773,-0.0771,0,0,-0.177,-0.1722,-0.1717,-0.161,-0.1594,-0.1493,-0.1468,-0.1396,-0.1366,-0.1275,-0.1216,-0.1286,-0.1296,-0.104,-0.0979,-0.0833,-0.0987,-0.0785,-0.1253,-0.1325,-0.1362,-0.1479,-0.1404,0,0,0,0,0]},{"header":{"parameterUnit":"m.s-1","parameterCategory":2,"la1":30.2991,"la2":30.254,"lo1":-89.0895,"lo2":-89.0444,"dy":0.0017,"dx":0.0017,"nx":28,"ny":28,"refTime":"2025-07-22T09:00:00:Z","depth":"2","parameterNumber":3,"parameterNumberName":"V-component_of_CURRENTS"},"data":[0,0,0,0,0,0,0,0,0,0,0,0,0,0,0,0,0,0,0,0,0,0,0,0,0,0,0,0,0,0,0,0,0,0,0,0,0,0,0,0,0,0,0,0,0,0,0,0,0,0,0,0,0,0,0,0,0,0,-0.0224,-0.0224,0,-0.0144,-0.0143,-0.0142,-0.0084,-0.0084,-0.0084,-0.0083,0.0072,0.0076,0.0079,0,0,0,0,0,0,0,0,0,0,0,0,0,-0.0304,-0.0303,-0.0225,-0.0224,-0.0223,-0.0144,-0.0143,-0.0142,-0.0084,-0.0084,-0.0084,-0.0083,0.0071,0.0075,0.008,0,0,0,0,0,0,0,0,0,0,0,0,0,-0.025,-0.0302,-0.0225,-0.0185,-0.0181,-0.0144,-0.0143,-0.0141,-0.0085,-0.0084,-0.0083,-0.0083,0.0069,0.0075,0.008,0.0104,0,0,0.0098,0.01,0,0,0,0,0,0,0,0,-0.0253,-0.0247,-0.0192,-0.0188,-0.0183,-0.0124,-0.0114,-0.0056,-0.0085,-0.012,-0.0083,-0.0083,0.0012,0.0022,0.0037,0.0111,0.0118,0.0098,0.0102,0.0104,0.0106,0,0,0,0,0,0,0,-0.0257,-0.025,-0.0192,-0.0191,-0.0186,-0.0163,-0.0155,-0.0103,-0.0056,-0.0117,-0.0113,-0.0106,0.0015,0.0031,0.0041,0.012,0.0098,0.0103,0.0106,0.0109,0.0247,0.0247,0,0,0,0,0,0,-0.0271,-0.0254,-0.0194,-0.0189,-0.0219,-0.0162,-0.0153,-0.0143,-0.0058,-0.0046,-0.0106,-0.0103,0.0021,0.0034,0.0047,0.0089,0.0104,0.0109,0.0113,0.0247,0.0247,0.0247,0,0,0,0,0,0,-0.0273,-0.0266,-0.0197,-0.0221,-0.021,-0.0162,-0.0151,-0.0142,-0.0125,-0.0051,-0.0036,-0.0099,0.0022,0.0039,0.0095,0.0096,0.0112,0.0117,0.0246,0.0247,0.0247,0.0169,0,0,0,0,0,0,-0.0275,-0.0267,-0.0269,-0.0222,-0.021,-0.0183,-0.0151,-0.0141,-0.0122,-0.0117,-0.0039,-0.0025,0.0024,0.0086,0.01,0.0104,0.0121,0.0246,0.0247,0.0247,0.0171,0.0167,0.0163,0,0,0,0,0,-0.0278,-0.0286,-0.0269,-0.0262,-0.0212,-0.0184,-0.0176,-0.0139,-0.0122,-0.012,-0.0063,-0.0027,0.01,0.0091,0.0108,0.0113,0.0246,0.0246,0.0247,0.0173,0.0168,0.0163,0,0,0,0,0,0,-0.0324,-0.0279,-0.026,-0.0254,-0.0224,-0.0175,-0.0172,-0.0144,-0.0099,-0.0093,-0.0022,-0.0003,0.0043,0.0091,0.0079,0.0155,0.0178,0.0182,0.0116,0.0112,0.0108,0.0103,0.0126,0,0,0,0,0,-0.0335,-0.033,-0.0281,-0.0281,-0.0266,-0.022,-0.0205,-0.0179,-0.0132,-0.0113,-0.0056,0.0006,0.0058,0.0094,0.0144,0.019,0.0232,0.0205,0.02,0.0196,0.0205,0.0267,0.0269,0.0249,0.0249,0.0249,0,0,-0.0356,-0.0331,-0.033,-0.0291,-0.0265,-0.0246,-0.0209,-0.0192,-0.0172,-0.0101,-0.0059,-0.001,0.0065,0.0111,0.0137,0.0153,0.022,0.0197,0.0193,0.0204,0.0268,0.027,0.0272,0.025,0.025,0.025,0,0,-0.0396,-0.037,-0.0376,-0.0347,-0.031,-0.0277,-0.0274,-0.0222,-0.0194,-0.015,-0.0096,-0.0044,0.0037,0.0093,0.0131,0.0138,0.0189,0.0149,0.0134,0.0193,0.0195,0.0198,0.0229,0.0235,0.0155,0.0155,0.0155,0,-0.0422,-0.0414,-0.0376,-0.0365,-0.0346,-0.0293,-0.0288,-0.0251,-0.0187,-0.0159,-0.0146,-0.0024,0.0032,0.0103,0.0102,0.0129,0.016,0.0142,0.0186,0.019,0.0194,0.0226,0.0233,0.0151,0.0151,0.0152,0.0152,0,-0.0459,-0.0444,-0.0446,-0.0411,-0.0388,-0.0377,-0.0317,-0.029,-0.0252,-0.0205,-0.0137,-0.0061,0.0014,0.0035,0.0072,0.0128,0.0138,0.0164,0.0193,0.0191,0.0225,0.0234,0.0146,0.0147,0.0148,0.0149,0,0,-0.0522,-0.0482,-0.0477,-0.0466,-0.0407,-0.0395,-0.0359,-0.0306,-0.0279,-0.0212,-0.0166,-0.008,-0.0038,0.001,0.0063,0.0119,0.0158,0.0146,0.0151,0.0166,0.0267,0.029,0.0302,0.0187,0.0189,0.019,0.0271,0,-0.0556,-0.0559,-0.0521,-0.0512,-0.0502,-0.0438,-0.0409,-0.0354,-0.0296,-0.0237,-0.0147,-0.0086,-0.0046,-0.0015,0.0046,0.0137,0.0183,0.0133,0.0279,0.0283,0.0295,0.0315,0.0305,0.0378,0.028,0.0282,0.0283,0,-0.0591,-0.0586,-0.0596,-0.0554,-0.0544,-0.0531,-0.0474,-0.044,-0.0339,-0.0291,-0.0208,-0.0134,-0.0035,-0.001,0.0144,0.0108,0.0178,0.0244,0.0249,0.031,0.0324,0.0373,0.0399,0.0299,0.0297,0.0296,0.0295,0,-0.0657,-0.0629,-0.0646,-0.0631,-0.0582,-0.0572,-0.0543,-0.046,-0.0426,-0.0323,-0.0281,-0.0155,-0.0086,0.0025,0.016,0.0153,0.0321,0.0334,0.0418,0.0419,0.0463,0.0465,0.0434,0.0434,0.0434,0.0434,0.0434,0,-0.0699,-0.0701,-0.068,-0.0687,-0.0692,-0.0636,-0.0626,-0.0568,-0.0487,-0.0436,-0.0319,-0.0245,-0.0072,0.0049,0.0155,0.0317,0.032,0.0424,0.0452,0.0432,0.0431,0.0411,0.0407,0.0437,0.0436,0.0436,0.0435,0,-0.0752,-0.0744,-0.0753,-0.0728,-0.0724,-0.0726,-0.0685,-0.0674,-0.0584,-0.0512,-0.048,-0.0301,-0.0132,0.0028,0.0223,0.0318,0.0462,0.051,0.0461,0.0483,0.0515,0.0506,0.0621,0.0623,0.0624,0.0625,0.0626,0,-0.0776,-0.0796,-0.08,-0.0817,-0.0807,-0.0806,-0.0811,-0.0735,-0.071,-0.0538,-0.0507,-0.0317,-0.0169,0.0116,0.0318,0.0512,0.0503,0.0604,0.0604,0.0524,0.054,0.0529,0.0518,0.0619,0.062,0.0621,0.0621,0,-0.0811,-0.0823,-0.0833,-0.0886,-0.0906,-0.0919,-0.0908,-0.09,-0.0793,-0.0685,-0.0505,-0.0366,-0.0071,0.018,0.0417,0.0525,0.0575,0.0626,0.0583,0.057,0.0529,0.0541,0.0531,0.0628,0.0627,0.0626,0.0626,0.0626,-0.0831,-0.0852,-0.0894,-0.0941,-0.098,-0.1022,-0.1033,-0.0978,-0.0902,-0.0728,-0.0573,-0.0319,-0.0069,0.0299,0.0476,0.0652,0.0655,0.0699,0.0694,0.0689,0.0671,0.0636,0.0749,0.0749,0.0749,0.0749,0.0749,0,-0.0851,-0.0894,-0.0948,-0.1009,-0.1087,-0.1087,-0.1095,-0.1076,-0.0973,-0.0743,-0.0553,-0.0251,0.0029,0.0287,0.0589,0.0747,0.0722,0.0755,0.0704,0.0698,0.0693,0.0672,0.0752,0.0752,0.0752,0.0752,0,0,-0.0862,-0.093,-0.0971,-0.1102,-0.1157,-0.1216,-0.1226,-0.113,-0.0972,-0.0738,-0.0496,-0.0295,0.0069,0.0262,0.0469,0.0635,0.0612,0.0634,0.0621,0.0532,0.0524,0.0658,0.062,0,0,0,0,0]}],[{"header":{"parameterUnit":"m.s-1","parameterCategory":2,"la1":30.2991,"la2":30.254,"lo1":-89.0895,"lo2":-89.0444,"dy":0.0017,"dx":0.0017,"nx":28,"ny":28,"refTime":"2025-07-22T09:00:00:Z","depth":"4","parameterNumber":2,"parameterNumberName":"U-component_of_CURRENTS"},"data":[0,0,0,0,0,0,0,0,0,0,0,0,0,0,0,0,0,0,0,0,0,0,0,0,0,0,0,0,0,0,0,0,0,0,0,0,0,0,0,0,0,0,0,0,0,0,0,0,0,0,0,0,0,0,0,0,0,0,-0.1686,-0.1687,0,-0.1729,-0.1729,-0.173,-0.1757,-0.1757,-0.1757,-0.1758,-0.1805,-0.1806,-0.1807,0,0,0,0,0,0,0,0,0,0,0,0,0,-0.1652,-0.1653,-0.1686,-0.1687,-0.1687,-0.1729,-0.1729,-0.173,-0.1757,-0.1757,-0.1758,-0.1758,-0.1805,-0.1806,-0.1807,0,0,0,0,0,0,0,0,0,0,0,0,0,-0.1678,-0.1653,-0.1686,-0.1706,-0.1709,-0.1729,-0.1729,-0.173,-0.1757,-0.1757,-0.1758,-0.1758,-0.1804,-0.1806,-0.1807,-0.1811,0,0,-0.1812,-0.1813,0,0,0,0,0,0,0,0,-0.1676,-0.1679,-0.1703,-0.1705,-0.1708,-0.1739,-0.1735,-0.1757,-0.1757,-0.1738,-0.1758,-0.1758,-0.1783,-0.1787,-0.1793,-0.1813,-0.1815,-0.1812,-0.1813,-0.1814,-0.1814,0,0,0,0,0,0,0,-0.1674,-0.1677,-0.1702,-0.1703,-0.1706,-0.1722,-0.1725,-0.1739,-0.1758,-0.174,-0.1742,-0.1748,-0.1785,-0.1791,-0.1794,-0.1816,-0.1812,-0.1814,-0.1815,-0.1815,-0.188,-0.1881,0,0,0,0,0,0,-0.1669,-0.1675,-0.1701,-0.1704,-0.1693,-0.1722,-0.1726,-0.1728,-0.1758,-0.1763,-0.1747,-0.1749,-0.1789,-0.1792,-0.1796,-0.1859,-0.1814,-0.1815,-0.1816,-0.1879,-0.188,-0.1881,0,0,0,0,0,0,-0.1668,-0.167,-0.1699,-0.1691,-0.1696,-0.1722,-0.1724,-0.1728,-0.176,-0.1764,-0.1769,-0.1777,-0.1789,-0.1794,-0.1826,-0.1859,-0.1816,-0.1818,-0.1878,-0.1879,-0.188,-0.1947,0,0,0,0,0,0,-0.1666,-0.167,-0.1683,-0.1691,-0.1697,-0.1723,-0.1724,-0.1729,-0.1762,-0.1765,-0.179,-0.1793,-0.179,-0.1824,-0.1827,-0.186,-0.1819,-0.1877,-0.1879,-0.188,-0.1944,-0.1951,-0.1956,0,0,0,0,0,-0.1665,-0.1678,-0.1683,-0.1688,-0.1709,-0.1723,-0.1728,-0.1747,-0.1763,-0.1777,-0.1796,-0.1794,-0.1835,-0.1826,-0.183,-0.1864,-0.1877,-0.1878,-0.188,-0.1942,-0.195,-0.1956,0,0,0,0,0,0,-0.1675,-0.1682,-0.1688,-0.1705,-0.1719,-0.1729,-0.1752,-0.1763,-0.1791,-0.1805,-0.1807,-0.1812,-0.1848,-0.1844,-0.1834,-0.1884,-0.1854,-0.1857,-0.19,-0.1907,-0.1913,-0.1916,-0.182,0,0,0,0,0,-0.1682,-0.1693,-0.1701,-0.1718,-0.1728,-0.1746,-0.1761,-0.1774,-0.1792,-0.1806,-0.1823,-0.184,-0.1854,-0.1873,-0.1879,-0.1914,-0.1895,-0.1936,-0.1942,-0.1947,-0.1951,-0.1947,-0.1953,-0.1887,-0.1887,-0.1886,0,0,-0.1697,-0.1698,-0.171,-0.1722,-0.1738,-0.176,-0.1757,-0.1787,-0.1815,-0.1807,-0.1859,-0.1862,-0.1866,-0.1899,-0.1916,-0.1906,-0.1955,-0.1949,-0.1954,-0.1955,-0.1949,-0.1956,-0.1962,-0.1888,-0.1887,-0.1887,0,0,-0.1715,-0.173,-0.1742,-0.1756,-0.1778,-0.1789,-0.1804,-0.1827,-0.1851,-0.189,-0.189,-0.1916,-0.1943,-0.1953,-0.196,-0.2004,-0.1981,-0.2007,-0.2053,-0.205,-0.2055,-0.206,-0.2041,-0.2044,-0.2018,-0.2018,-0.2019,0,-0.1731,-0.1742,-0.1751,-0.1765,-0.1786,-0.1807,-0.1831,-0.1858,-0.1891,-0.1912,-0.1915,-0.1958,-0.1969,-0.2005,-0.2024,-0.2021,-0.2005,-0.2029,-0.2058,-0.2062,-0.2066,-0.2046,-0.2048,-0.2022,-0.2021,-0.2021,-0.2021,0,-0.1749,-0.1771,-0.1784,-0.1807,-0.1832,-0.1858,-0.1889,-0.1924,-0.1957,-0.1975,-0.202,-0.2032,-0.2053,-0.2067,-0.2065,-0.2101,-0.2076,-0.2061,-0.2042,-0.2077,-0.2053,-0.2054,-0.2027,-0.2026,-0.2025,-0.2024,0,0,-0.1737,-0.1786,-0.1792,-0.1812,-0.1857,-0.1874,-0.1933,-0.1974,-0.2013,-0.2049,-0.2089,-0.2127,-0.213,-0.2137,-0.2138,-0.215,-0.217,-0.2127,-0.2125,-0.2111,-0.215,-0.1996,-0.1981,-0.216,-0.216,-0.2161,-0.2123,0,-0.1746,-0.1781,-0.1808,-0.1857,-0.1877,-0.1923,-0.1972,-0.2019,-0.2059,-0.2102,-0.2127,-0.2159,-0.2157,-0.2173,-0.2186,-0.217,-0.2175,-0.2181,-0.2115,-0.2113,-0.1974,-0.1978,-0.2163,-0.2123,-0.2123,-0.2123,-0.2123,0,-0.1738,-0.1764,-0.1812,-0.1874,-0.1891,-0.1931,-0.2007,-0.2051,-0.2116,-0.2148,-0.2186,-0.2197,-0.223,-0.2217,-0.2213,-0.2215,-0.2192,-0.2177,-0.2174,-0.2006,-0.1959,-0.208,-0.2124,-0.2124,-0.2124,-0.2124,-0.2124,0,-0.1697,-0.1761,-0.1801,-0.1823,-0.1901,-0.1942,-0.199,-0.2063,-0.2099,-0.2172,-0.2196,-0.2233,-0.2241,-0.2234,-0.2205,-0.2213,-0.2179,-0.218,-0.2018,-0.2006,-0.213,-0.2126,-0.2171,-0.2171,-0.2171,-0.2171,-0.2171,0,-0.1665,-0.1699,-0.179,-0.1807,-0.1861,-0.1926,-0.1985,-0.2043,-0.2114,-0.2129,-0.2208,-0.2209,-0.2245,-0.2227,-0.2208,-0.2096,-0.2174,-0.2016,-0.1983,-0.2158,-0.2157,-0.213,-0.2126,-0.217,-0.217,-0.217,-0.2171,0,-0.1597,-0.1661,-0.1709,-0.1806,-0.1837,-0.1874,-0.1967,-0.1995,-0.2084,-0.2104,-0.2124,-0.2187,-0.2152,-0.216,-0.2134,-0.2065,-0.2002,-0.1945,-0.2121,-0.21,-0.1837,-0.1837,-0.1761,-0.1755,-0.175,-0.1746,-0.1743,0,-0.156,-0.158,-0.1691,-0.1715,-0.1759,-0.1824,-0.1856,-0.1961,-0.1972,-0.2056,-0.2035,-0.2056,-0.2068,-0.1907,-0.1946,-0.1881,-0.186,-0.1822,-0.1843,-0.1817,-0.1794,-0.1802,-0.1808,-0.1735,-0.1734,-0.1732,-0.1731,0,-0.1482,-0.1541,-0.1579,-0.1629,-0.1672,-0.1704,-0.175,-0.1746,-0.183,-0.1941,-0.1883,-0.186,-0.1812,-0.1788,-0.1738,-0.1702,-0.1847,-0.177,-0.1781,-0.1801,-0.1785,-0.1768,-0.178,-0.1714,-0.1716,-0.1718,-0.1719,0,-0.1426,-0.1434,-0.1491,-0.1516,-0.1566,-0.1539,-0.159,-0.1579,-0.1607,-0.1699,-0.1672,-0.1706,-0.1773,-0.1692,-0.1652,-0.1593,-0.1578,-0.1536,-0.1559,-0.1579,-0.1536,-0.149,-0.1288,0,0,0,0,0,-0.1355,-0.1344,-0.1364,-0.1372,-0.1413,-0.143,-0.149,-0.1537,-0.1622,-0.1528,-0.1592,-0.1541,-0.1486,-0.1524,-0.1421,-0.1568,-0.1583,-0.1444,-0.1548,-0.1618,-0.1638,-0.1605,0,0,0,0,0,0,-0.1302,-0.1323,-0.1319,-0.1237,-0.1211,-0.1222,-0.1251,-0.1311,-0.1266,-0.1373,-0.1351,-0.1444,-0.1416,-0.1508,-0.1388,-0.1394,-0.1425,-0.1482,-0.1478,-0.1607,-0.1625,-0.1641,-0.1614,0,0,0,0,0]},{"header":{"parameterUnit":"m.s-1","parameterCategory":2,"la1":30.2991,"la2":30.254,"lo1":-89.0895,"lo2":-89.0444,"dy":0.0017,"dx":0.0017,"nx":28,"ny":28,"refTime":"2025-07-22T09:00:00:Z","depth":"4","parameterNumber":3,"parameterNumberName":"V-component_of_CURRENTS"},"data":[0,0,0,0,0,0,0,0,0,0,0,0,0,0,0,0,0,0,0,0,0,0,0,0,0,0,0,0,0,0,0,0,0,0,0,0,0,0,0,0,0,0,0,0,0,0,0,0,0,0,0,0,0,0,0,0,0,0,-0.0175,-0.0175,0,-0.013,-0.013,-0.0129,-0.0087,-0.0087,-0.0086,-0.0086,-0.0023,-0.0022,-0.002,0,0,0,0,0,0,0,0,0,0,0,0,0,-0.0217,-0.0216,-0.0175,-0.0174,-0.0174,-0.013,-0.013,-0.0129,-0.0088,-0.0087,-0.0086,-0.0086,-0.0023,-0.0022,-0.002,0,0,0,0,0,0,0,0,0,0,0,0,0,-0.0188,-0.0216,-0.0175,-0.0148,-0.0145,-0.013,-0.013,-0.0129,-0.0088,-0.0087,-0.0086,-0.0086,-0.0024,-0.0022,-0.002,-0.0023,0,0,-0.0014,-0.0014,0,0,0,0,0,0,0,0,-0.0189,-0.0186,-0.0153,-0.015,-0.0147,-0.0114,-0.0121,-0.0093,-0.0088,-0.0109,-0.0086,-0.0085,-0.0052,-0.0048,-0.0041,-0.002,-0.0018,-0.0014,-0.0013,-0.0012,-0.0012,0,0,0,0,0,0,0,-0.0191,-0.0188,-0.0157,-0.0152,-0.0149,-0.0136,-0.0131,-0.0116,-0.0085,-0.0107,-0.0104,-0.01,-0.005,-0.0043,-0.0039,-0.0017,-0.0014,-0.0013,-0.0011,-0.0011,0.0019,0.0018,0,0,0,0,0,0,-0.0199,-0.019,-0.0158,-0.0156,-0.0167,-0.0136,-0.013,-0.0125,-0.0085,-0.0079,-0.0101,-0.0098,-0.0046,-0.0041,-0.0037,-0.0014,-0.0012,-0.0011,-0.0009,0.0019,0.0018,0.0018,0,0,0,0,0,0,-0.02,-0.0196,-0.016,-0.0172,-0.0166,-0.0136,-0.013,-0.0125,-0.0116,-0.0081,-0.0073,-0.0099,-0.0046,-0.0039,-0.0026,-0.0012,-0.001,-0.0008,0.0019,0.0019,0.0018,0.0015,0,0,0,0,0,0,-0.0201,-0.0197,-0.0201,-0.0172,-0.0166,-0.0157,-0.0131,-0.0124,-0.0115,-0.0111,-0.0076,-0.007,-0.0045,-0.0029,-0.0024,-0.001,-0.0007,0.002,0.0019,0.0018,0.0016,0.0015,0.0014,0,0,0,0,0,-0.0203,-0.0212,-0.0201,-0.0198,-0.0171,-0.0158,-0.0154,-0.0129,-0.0116,-0.0118,-0.0093,-0.0071,-0.0029,-0.0028,-0.0022,-0.0007,0.002,0.0019,0.0018,0.0016,0.0015,0.0014,0,0,0,0,0,0,-0.0234,-0.0208,-0.0196,-0.0197,-0.0181,-0.0151,-0.0153,-0.0135,-0.0117,-0.0114,-0.0078,-0.007,-0.0051,-0.0038,-0.0037,-0.0003,-0.0,0.0,-0.0004,-0.0005,-0.0005,0.0006,-0.0005,0,0,0,0,0,-0.0243,-0.0244,-0.0215,-0.0219,-0.0211,-0.0184,-0.0177,-0.016,-0.0138,-0.0129,-0.0103,-0.0077,-0.0051,-0.0036,-0.0017,-0.0002,0.0024,0.001,0.0009,0.0009,0.002,0.0083,0.0089,0.0016,0.0016,0.0016,0,0,-0.0259,-0.0244,-0.0246,-0.0226,-0.0212,-0.0201,-0.0178,-0.0172,-0.0156,-0.0126,-0.0105,-0.0083,-0.005,-0.0027,-0.0018,-0.0013,0.0034,0.0008,0.0007,0.0019,0.0083,0.009,0.0097,0.0015,0.0015,0.0015,0,0,-0.0288,-0.0276,-0.0282,-0.0267,-0.0247,-0.0226,-0.0226,-0.0197,-0.0178,-0.0162,-0.0128,-0.0094,-0.0072,-0.0028,-0.0006,-0.0004,0.0024,-0.0009,0.0004,0.0064,0.0072,0.0079,0.0088,0.0096,-0.0005,-0.0005,-0.0005,0,-0.0308,-0.0303,-0.0284,-0.0279,-0.0266,-0.0238,-0.0233,-0.0211,-0.0181,-0.0158,-0.0159,-0.0088,-0.0062,-0.0002,-0.0001,0.0,0.0016,0.0009,0.0066,0.0074,0.0081,0.0089,0.0098,-0.0005,-0.0005,-0.0005,-0.0005,0,-0.0333,-0.0325,-0.0328,-0.0306,-0.0294,-0.0289,-0.0251,-0.0235,-0.0212,-0.0178,-0.0128,-0.0086,-0.0038,-0.0026,-0.0012,0.0053,0.0038,0.0056,0.0075,0.0089,0.0095,0.0105,-0.0005,-0.0005,-0.0005,-0.0005,0,0,-0.0379,-0.0351,-0.0351,-0.034,-0.0304,-0.0298,-0.027,-0.0229,-0.0203,-0.0163,-0.0117,-0.0058,-0.0029,-0.0002,0.0029,0.0085,0.0138,0.0087,0.009,0.0105,0.0234,0.0209,0.0216,0.0168,0.017,0.0172,0.0206,0,-0.0399,-0.04,-0.0375,-0.0366,-0.0356,-0.0315,-0.0291,-0.0249,-0.0209,-0.0161,-0.0088,-0.0044,-0.0021,-0.0,0.0064,0.012,0.0167,0.0125,0.021,0.0212,0.0198,0.0229,0.0179,0.0213,0.0215,0.0217,0.0218,0,-0.0422,-0.0415,-0.042,-0.0382,-0.0375,-0.0369,-0.032,-0.0295,-0.0213,-0.0178,-0.0104,-0.0054,0.0034,0.0046,0.0171,0.0138,0.0185,0.0229,0.0232,0.0224,0.0207,0.0203,0.0235,0.0234,0.0233,0.0231,0.023,0,-0.0461,-0.0439,-0.0447,-0.0436,-0.0397,-0.039,-0.037,-0.0304,-0.028,-0.0189,-0.0161,-0.0045,-0.0002,0.0098,0.0179,0.0179,0.0304,0.0317,0.0339,0.0335,0.0348,0.034,0.0415,0.0415,0.0414,0.0414,0.0414,0,-0.048,-0.0481,-0.0472,-0.0474,-0.0479,-0.0434,-0.0428,-0.0381,-0.0318,-0.0289,-0.0181,-0.0136,0.0016,0.01,0.0182,0.0278,0.0307,0.035,0.0359,0.0337,0.0329,0.0352,0.0344,0.0416,0.0415,0.0415,0.0415,0,-0.0509,-0.0506,-0.0513,-0.0498,-0.0501,-0.0506,-0.0487,-0.0479,-0.0406,-0.0365,-0.034,-0.0202,-0.0083,0.0051,0.0205,0.0264,0.0369,0.0393,0.0325,0.0327,0.0354,0.0345,0.0433,0.0433,0.0433,0.0433,0.0433,0,-0.0519,-0.0532,-0.0552,-0.0579,-0.0579,-0.0587,-0.0601,-0.0538,-0.0524,-0.0413,-0.0399,-0.0264,-0.0167,0.0019,0.0172,0.0337,0.036,0.0394,0.0419,0.0365,0.0364,0.0356,0.0348,0.0432,0.0432,0.0432,0.0432,0,-0.0534,-0.0558,-0.0571,-0.0635,-0.067,-0.0695,-0.07,-0.0692,-0.0616,-0.0553,-0.0449,-0.0313,-0.0175,0.0002,0.0129,0.025,0.0371,0.0393,0.0395,0.0419,0.0364,0.0362,0.0355,0.0432,0.0432,0.0432,0.0432,0,-0.0554,-0.0578,-0.0625,-0.0677,-0.0738,-0.0786,-0.0775,-0.0748,-0.0714,-0.0577,-0.0552,-0.0365,-0.0244,-0.0044,0.0073,0.0196,0.0237,0.0263,0.0272,0.0275,0.023,0.0137,0.0154,0,0,0,0,0,-0.056,-0.0606,-0.0664,-0.0728,-0.0799,-0.0835,-0.0837,-0.0812,-0.0739,-0.0685,-0.0609,-0.0475,-0.0244,-0.0131,-0.0012,0.0069,0.0249,0.021,0.0279,0.0429,0.0429,0.0404,0,0,0,0,0,0,-0.0571,-0.063,-0.0666,-0.0772,-0.0834,-0.0903,-0.0913,-0.0862,-0.0811,-0.0714,-0.0593,-0.0478,-0.0256,-0.0329,-0.0025,0.0021,0.0075,0.0337,0.0339,0.0428,0.0429,0.0429,0.0404,0,0,0,0,0]}]]